Starlink 11243

operational
NORAD ID: 60927 Int'l Des: 2024-155 Owner: SPXS Country: US Constellation: starlink
LEOCIRCULAR

Über Starlink 11243

Beschreibung wird geladen...

Live-Position

3D-Globus wird geladen...

Nächste Überflüge

Höhenverlauf

Altitude vs Time

uPlot chart will show altitude changes over time

Zweizeiliger Elementsatz

1 60927U 24155D 25305.16085200 -.00001556 00000-0 -79826-5 0 9994
2 60927 53.1591 254.9908 0001144 89.0403 271.0746 15.69723106 68215
Epoch: 1. Nov. 2025 • Age: 34 hours

Aktueller Status

Höhe 365.0 km
Geschwindigkeit 7.69 km/s
Subsatellitenpunkt -18.51°S, 174.85°W
Startdatum 31. Aug. 2024
Alter 1.1 years
Typ internet

Technische Details

Klassifizierung Payload
Masse 960.00 kg
Trockenmasse 910.00 kg
Gesamtmasse 960.00 kg
Länge 0.30 m
Durchmesser 4.10 m
Spannweite 29.00 m
Form Box + pan
Hersteller SPXS
Bus-Typ Starlink V2MD
Phasenstatus In Orbit
Besitzer/Staat SPXS/US

Große Konstellationen

Loading constellations...